星链-1019 (STARLINK-1019 )

导读 | 星芒AI

STARLINK-1019 是 SpaceX Starlink 卫星互联网项目中的一颗低轨道通信卫星。它属于第二批 Starlink 卫星(第二批组网卫星),于2020年5月23日由猎鹰9号火箭从肯尼迪航天中心发射升空。该卫星采用先进的相控阵天线和激光通信技术,旨在为全球用户提供高速、低延迟的互联网服务。STARLINK-1019 与其他 Starlink 卫星协同工作,构建覆盖全球的宽带网络,尤其服务于偏远和网络基础设施薄弱的地区。

基本信息
目录编号:
44724
目录名称:
STARLINK-1019
国际标识:
2019-074M
轨道中心:
EARTH
卫星名称:
星链-1019
卫星全名:
星链-1019 (STARLINK-1019 )
卫星状态:
在轨 (已飞行2224 天)
发射日期:
2019-11-11 UTC
国别 :
美国 (US)
星等 :
--
轨道信息
数据来源 国际轨道数据 AOE轨道数据
星历时间 2025-12-13T08:00:11+0800
9小时前
查看轨道信息
2025-12-08T21:00:00+0800
4天前
查看轨道信息
半长轴 6776.68km 6777.916km
偏心率 0.0004181 0.0004547
轨道倾角 53.052° 53.051°
近地点辐角 135.416° 123.616°
升交点赤经 204.156° 225.744°
平近点角 224.719° 87.260°
近地点 395.711km 396.699km
远地点 401.379km 402.863km
周期 92.531分钟 92.556分钟
每日圈数 15.562427 15.55817
详细信息
固有亮度:
5
最大亮度:
2.5
卫星平台:
Starlink V1.0
覆盖范围:
全球
运营商:
太空探索技术公司
运营商所在国:
美国
制造商(研发单位):
太空探索技术公司
制造商所在国:
美国
使用方式:
暂无
卫星简介
星链(Starlink)计划是由太空探索技术公司(SpaceX)提出的一个巨型低轨卫星互联网星座项目,计划在2019年至2024年间在太空搭建由约1.2万颗卫星组成的“星链”网络,其中1584颗将部署在地球上空550千米处的近地轨道,并从2020年开始工作。该卫星仍在工作。
2D轨道图
3D轨道图
轨道高度分析图
轨道倾角分析图
轨道综合分析图
查看轨道综合分析图